* Astronomy

Members Login
Post Info TOPIC: Comet P/2006 U5 = 2012 P1 (CHRISTENSEN)


L

Posts: 131433
Date:
RE: Comet P/2006 U5 = 2012 P1 (CHRISTENSEN)
Permalink  
 


Comet 266P/Christensen is at Opposition (2.937 AU) in the constellation Libra on the 12th May 2015



__________________


L

Posts: 131433
Date:
Comet 266P/Christensen
Permalink  
 


Comet 266P/Christensen makes its closest approach to the Earth (2.927 AU) in the constellation Libra on the 4th May 2015 

Ephemeris

Date    TT    R. A. (2000) Decl.     Delta      r    Elong.  Phase   Mag
2015 05 01    15 18 15.7 -21 35 47   2.9288  3.9165   166.9     3.3  20.8
2015 05 02    15 17 31.0 -21 33 35   2.9280  3.9192   168.0     3.1  20.8
2015 05 03    15 16 46.1 -21 31 21   2.9276  3.9218   169.1     2.8  20.8
2015 05 04    15 16 00.9 -21 29 03   2.9274  3.9245   170.2     2.5  20.8
2015 05 05    15 15 15.6 -21 26 43   2.9275  3.9271   171.2     2.2  20.8
2015 05 06    15 14 30.1 -21 24 20   2.9279  3.9297   172.3     2.0  20.8
2015 05 07    15 13 44.5 -21 21 55   2.9286  3.9324   173.3     1.7  20.8
2015 05 08    15 12 58.8 -21 19 28   2.9297  3.9350   174.3     1.5  20.8
2015 05 09    15 12 13.1 -21 16 58   2.9310  3.9376   175.2     1.2  20.8
2015 05 10    15 11 27.4 -21 14 26   2.9326  3.9403   175.9     1.0  20.8
2015 05 11    15 10 41.7 -21 11 52   2.9345  3.9429   176.5     0.9  20.8
2015 05 12    15 09 56.2 -21 09 17   2.9367  3.9455   176.7     0.8  20.8
2015 05 13    15 09 10.7 -21 06 40   2.9392  3.9481   176.5     0.9  20.8
2015 05 14    15 08 25.4 -21 04 01   2.9420  3.9507   176.0     1.0  20.8
2015 05 15    15 07 40.2 -21 01 21   2.9451  3.9533   175.3     1.2  20.8
2015 05 16    15 06 55.3 -20 58 40   2.9486  3.9559   174.4     1.4  20.8
2015 05 17    15 06 10.6 -20 55 58   2.9523  3.9585   173.5     1.7  20.8
2015 05 18    15 05 26.3 -20 53 14   2.9563  3.9611   172.4     1.9  20.8
2015 05 19    15 04 42.2 -20 50 30   2.9606  3.9637   171.4     2.2  20.8
2015 05 20    15 03 58.6 -20 47 46   2.9652  3.9663   170.3     2.5  20.8
2015 05 21    15 03 15.3 -20 45 01   2.9701  3.9689   169.3     2.7  20.9
2015 05 22    15 02 32.5 -20 42 16   2.9753  3.9715   168.2     3.0  20.9
2015 05 23    15 01 50.2 -20 39 31   2.9808  3.9740   167.1     3.3  20.9
2015 05 24    15 01 08.4 -20 36 46   2.9866  3.9766   166.0     3.5  20.9
2015 05 25    15 00 27.1 -20 34 01   2.9926  3.9792   164.9     3.8  20.9
2015 05 26    14 59 46.4 -20 31 17   2.9990  3.9817   163.8     4.1  20.9
2015 05 27    14 59 06.2 -20 28 33   3.0056  3.9843   162.7     4.3  20.9
2015 05 28    14 58 26.7 -20 25 50   3.0125  3.9868   161.6     4.6  20.9
2015 05 29    14 57 47.8 -20 23 08   3.0197  3.9894   160.5     4.9  20.9
2015 05 30    14 57 09.6 -20 20 27   3.0272  3.9919   159.4     5.1  20.9
2015 05 31    14 56 32.1 -20 17 48   3.0349  3.9945   158.3     5.4  20.9


__________________


L

Posts: 131433
Date:
Permalink  
 

Comet 266P/Christensen is at Opposition (1.601 AU) on the 25th February 2014



__________________


L

Posts: 131433
Date:
Permalink  
 

Comet 266P/Christensen makes its closest approach to the Earth (1.590 AU) on the 16th February 2014



__________________


L

Posts: 131433
Date:
RE: Comet P/2006 U5 = 2012 P1 (CHRISTENSEN)
Permalink  
 


Ephemeris

Date    TT    R. A. (2000) Decl.     Delta      r     Elong.  Phase   Mag
2014 02 15    10 43 07.2 +11 15 08   1.5903  2.5638   167.7     4.7  17.6
2014 02 16    10 42 21.2 +11 18 30   1.5901  2.5664   168.8     4.3  17.6
2014 02 17    10 41 34.7 +11 21 53   1.5902  2.5690   170.0     3.8  17.6
2014 02 18    10 40 47.7 +11 25 16   1.5905  2.5715   171.2     3.4  17.6
2014 02 19    10 40 00.4 +11 28 39   1.5912  2.5741   172.3     2.9  17.6
2014 02 20    10 39 12.7 +11 32 01   1.5921  2.5767   173.4     2.5  17.6
2014 02 21    10 38 24.8 +11 35 23   1.5932  2.5793   174.5     2.1  17.6
2014 02 22    10 37 36.7 +11 38 43   1.5947  2.5820   175.5     1.7  17.6
2014 02 23    10 36 48.5 +11 42 01   1.5964  2.5846   176.4     1.4  17.6
2014 02 24    10 36 00.2 +11 45 18   1.5984  2.5872   177.1     1.1  17.6
2014 02 25    10 35 11.9 +11 48 32   1.6007  2.5899   177.3     1.0  17.7
2014 02 26    10 34 23.7 +11 51 44   1.6033  2.5925   177.0     1.1  17.7
2014 02 27    10 33 35.6 +11 54 52   1.6061  2.5952   176.4     1.4  17.7
2014 02 28    10 32 47.8 +11 57 57   1.6092  2.5979   175.5     1.7  17.7
2014 03 01    10 32 00.2 +12 00 59   1.6126  2.6005   174.4     2.1  17.7
2014 03 02    10 31 12.9 +12 03 56   1.6163  2.6032   173.4     2.5  17.7
2014 03 03    10 30 26.1 +12 06 49   1.6203  2.6059   172.3     2.9  17.7
2014 03 04    10 29 39.8 +12 09 38   1.6245  2.6086   171.1     3.4  17.7
2014 03 05    10 28 54.0 +12 12 22   1.6290  2.6113   170.0     3.8  17.7
2014 03 06    10 28 08.8 +12 15 00   1.6338  2.6141   168.8     4.2  17.7
2014 03 07    10 27 24.2 +12 17 34   1.6388  2.6168   167.7     4.6  17.8
2014 03 08    10 26 40.4 +12 20 01   1.6441  2.6195   166.5     5.1  17.8
2014 03 09    10 25 57.3 +12 22 23   1.6497  2.6223   165.4     5.5  17.8
2014 03 10    10 25 15.1 +12 24 39   1.6556  2.6250   164.2     5.9  17.8
2014 03 11    10 24 33.7 +12 26 49   1.6617  2.6278   163.1     6.3  17.8
2014 03 12    10 23 53.3 +12 28 52   1.6680  2.6306   161.9     6.7  17.8
2014 03 13    10 23 13.8 +12 30 49   1.6746  2.6334   160.8     7.1  17.8
2014 03 14    10 22 35.3 +12 32 40   1.6815  2.6362   159.6     7.5  17.8
2014 03 15    10 21 57.9 +12 34 23   1.6886  2.6389   158.5     7.9  17.9
2014 03 16    10 21 21.5 +12 36 00   1.6960  2.6418   157.3     8.3  17.9
2014 03 17    10 20 46.3 +12 37 29   1.7036  2.6446   156.2     8.7  17.9
2014 03 18    10 20 12.2 +12 38 52   1.7114  2.6474   155.1     9.1  17.9
2014 03 19    10 19 39.3 +12 40 07   1.7195  2.6502   154.0     9.5  17.9
2014 03 20    10 19 07.6 +12 41 15   1.7278  2.6530   152.9     9.9  17.9
2014 03 21    10 18 37.1 +12 42 16   1.7364  2.6559   151.7    10.2  17.9
2014 03 22    10 18 07.9 +12 43 09   1.7452  2.6587   150.6    10.6  18.0
2014 03 23    10 17 40.0 +12 43 55   1.7542  2.6616   149.5    10.9  18.0
2014 03 24    10 17 13.4 +12 44 34   1.7634  2.6645   148.4    11.3  18.0
2014 03 25    10 16 48.2 +12 45 05   1.7729  2.6673   147.4    11.6  18.0
2014 03 26    10 16 24.3 +12 45 28   1.7825  2.6702   146.3    12.0  18.0
2014 03 27    10 16 01.8 +12 45 43   1.7924  2.6731   145.2    12.3  18.0
2014 03 28    10 15 40.7 +12 45 51   1.8025  2.6760   144.1    12.6  18.1
2014 03 29    10 15 21.0 +12 45 52   1.8128  2.6789   143.1    12.9  18.1
2014 03 30    10 15 02.7 +12 45 44   1.8233  2.6818   142.0    13.2  18.1
2014 03 31    10 14 45.9 +12 45 29   1.8340  2.6847   141.0    13.5  18.1


__________________


L

Posts: 131433
Date:
Comet 266P/Christensen
Permalink  
 


Comet 266P/Christensen is at Perihelion (2.328 AU) on the 31st August, 2013.

Ephemeris

Date    TT    R. A. (2000) Decl.     Delta      r     Elong.  Phase   Mag
2013 08 30    08 03 30.3 +23 04 31   3.0321  2.3280    38.5    15.7
2013 08 31    08 05 34.8 +22 58 46   3.0248  2.3280    39.0    15.8
2013 09 01    08 07 38.9 +22 52 55   3.0175  2.3280    39.4    16.0
2013 09 02    08 09 42.6 +22 47 00   3.0101  2.3280    39.9    16.1
2013 09 03    08 11 46.0 +22 41 00   3.0026  2.3280    40.4    16.3
2013 09 04    08 13 48.9 +22 34 56   2.9951  2.3281    40.9    16.5
2013 09 05    08 15 51.5 +22 28 47   2.9875  2.3282    41.4    16.6
2013 09 06    08 17 53.6 +22 22 35   2.9798  2.3283    41.9    16.8
2013 09 07    08 19 55.4 +22 16 17   2.9721  2.3284    42.3    16.9
2013 09 08    08 21 56.7 +22 09 56   2.9644  2.3285    42.8    17.1
2013 09 09    08 23 57.6 +22 03 31   2.9565  2.3286    43.3    17.3
2013 09 10    08 25 58.0 +21 57 02   2.9486  2.3288    43.8    17.4
2013 09 11    08 27 58.0 +21 50 29   2.9407  2.3290    44.3    17.6
2013 09 12    08 29 57.6 +21 43 52   2.9327  2.3292    44.8    17.7
2013 09 13    08 31 56.7 +21 37 11   2.9246  2.3294    45.3    17.9
2013 09 14    08 33 55.3 +21 30 27   2.9165  2.3297    45.8    18.0
2013 09 15    08 35 53.5 +21 23 39   2.9083  2.3299    46.3    18.2


__________________


L

Posts: 131433
Date:
RE: Comet P/2006 U5 = 2012 P1 (CHRISTENSEN)
Permalink  
 


Comet 266P/2006 U5 = 2012 P1 (Christensen)



__________________


L

Posts: 131433
Date:
Permalink  
 

Comet P/2006 U5 (Christensen) makes its closest approach to the Earth (2.032 AU) on the 21st October, 2012



__________________


L

Posts: 131433
Date:
Permalink  
 

Orbital elements:
    P/2006 U5 = 2012 P1 (Christensen)
Epoch 2013 Aug. 16.0 TT = JDT 2456520.5
T 2013 Aug. 31.62746 TT                                 MPC
q   2.3279890            (2000.0)            P               Q
n   0.14841606     Peri.   98.01367     -0.22585408     -0.97414693
a   3.5330418      Node     5.04861     +0.86857115     -0.20381643
e   0.3410808      Incl.    3.42790     +0.44110554     -0.09745058
P   6.64
From 348 observations 2006 Oct. 27-2012 Aug. 28

MPEC 2012 - R04



__________________
Page 1 of 1  sorted by
 
Quick Reply

Please log in to post quick replies.



Create your own FREE Forum
Report Abuse
Powered by ActiveBoard